TimeCDT,TemperatureF,Dew PointF,Humidity,Sea Level PressureIn,VisibilityMPH,Wind Direction,Wind SpeedMPH,Gust SpeedMPH,PrecipitationIn,Events,Conditions,WindDirDegrees,DateUTC
12:15 AM,44.6,37.4,76,30.05,10.0,WNW,6.9,-,N/A,,Clear,290,2012-10-10 05:15:00
12:55 AM,44.6,35.6,71,30.06,10.0,WNW,9.2,-,N/A,,Clear,300,2012-10-10 05:55:00
1:15 AM,44.6,35.6,71,30.07,10.0,NW,8.1,-,N/A,,Clear,320,2012-10-10 06:15:00
1:35 AM,44.6,35.6,71,30.08,10.0,NW,8.1,-,N/A,,Clear,310,2012-10-10 06:35:00
1:55 AM,44.6,33.8,66,30.08,10.0,NW,6.9,-,N/A,,Clear,310,2012-10-10 06:55:00
2:15 AM,44.6,33.8,66,30.09,10.0,NW,6.9,-,N/A,,Clear,320,2012-10-10 07:15:00
2:35 AM,42.8,33.8,70,30.09,10.0,NW,8.1,-,N/A,,Clear,320,2012-10-10 07:35:00
2:55 AM,42.8,32.0,66,30.09,10.0,WNW,5.8,-,N/A,,Clear,300,2012-10-10 07:55:00
3:15 AM,42.8,32.0,66,30.09,10.0,WNW,5.8,-,N/A,,Clear,300,2012-10-10 08:15:00
3:35 AM,41.0,30.2,65,30.10,10.0,West,6.9,-,N/A,,Clear,280,2012-10-10 08:35:00
3:55 AM,39.2,30.2,70,30.11,10.0,West,6.9,-,N/A,,Clear,270,2012-10-10 08:55:00
4:15 AM,39.2,30.2,70,30.11,10.0,West,5.8,-,N/A,,Clear,280,2012-10-10 09:15:00
4:35 AM,39.2,30.2,70,30.12,10.0,West,6.9,-,N/A,,Clear,280,2012-10-10 09:35:00
4:55 AM,39.2,30.2,70,30.13,10.0,West,6.9,-,N/A,,Clear,270,2012-10-10 09:55:00
5:15 AM,39.2,30.2,70,30.14,10.0,WNW,3.5,-,N/A,,Clear,290,2012-10-10 10:15:00
5:35 AM,37.4,30.2,75,30.15,10.0,West,4.6,-,N/A,,Clear,280,2012-10-10 10:35:00
5:55 AM,37.4,28.4,70,30.15,10.0,West,4.6,-,N/A,,Clear,280,2012-10-10 10:55:00
6:15 AM,37.4,28.4,70,30.16,10.0,West,4.6,-,N/A,,Clear,280,2012-10-10 11:15:00
6:35 AM,37.4,28.4,70,30.16,10.0,West,5.8,-,N/A,,Clear,270,2012-10-10 11:35:00
6:55 AM,37.4,28.4,70,30.17,10.0,West,5.8,-,N/A,,Clear,260,2012-10-10 11:55:00
7:15 AM,35.6,28.4,75,30.18,10.0,West,5.8,-,N/A,,Clear,270,2012-10-10 12:15:00
7:35 AM,35.6,28.4,75,30.18,10.0,West,3.5,-,N/A,,Clear,280,2012-10-10 12:35:00
7:55 AM,37.4,30.2,75,30.19,10.0,West,3.5,-,N/A,,Clear,270,2012-10-10 12:55:00
8:35 AM,42.8,33.8,70,30.21,10.0,Calm,Calm,-,N/A,,Clear,0,2012-10-10 13:35:00
8:55 AM,44.6,33.8,66,30.22,10.0,West,3.5,-,N/A,,Clear,280,2012-10-10 13:55:00
9:15 AM,46.4,33.8,62,30.22,10.0,West,4.6,-,N/A,,Clear,280,2012-10-10 14:15:00
9:35 AM,48.2,35.6,62,30.22,10.0,West,9.2,-,N/A,,Clear,260,2012-10-10 14:35:00
9:55 AM,48.2,35.6,62,30.23,10.0,West,8.1,-,N/A,,Clear,260,2012-10-10 14:55:00
10:15 AM,51.8,35.6,54,30.23,10.0,West,10.4,-,N/A,,Clear,270,2012-10-10 15:15:00
10:35 AM,53.6,33.8,47,30.23,10.0,West,10.4,-,N/A,,Clear,280,2012-10-10 15:35:00
10:55 AM,55.4,33.8,44,30.23,10.0,West,12.7,16.1,N/A,,Clear,280,2012-10-10 15:55:00
11:15 AM,55.4,32.0,41,30.24,10.0,NW,8.1,-,N/A,,Clear,310,2012-10-10 16:15:00
11:55 AM,57.2,26.6,31,30.24,10.0,WNW,12.7,23.0,N/A,,Clear,290,2012-10-10 16:55:00
12:15 PM,57.2,26.6,31,30.24,10.0,WNW,18.4,23.0,N/A,,Scattered Clouds,290,2012-10-10 17:15:00
12:35 PM,55.4,24.8,31,30.23,10.0,NW,16.1,-,N/A,,Scattered Clouds,320,2012-10-10 17:35:00
12:55 PM,59.0,26.6,29,30.23,10.0,West,12.7,17.3,N/A,,Clear,280,2012-10-10 17:55:00
1:15 PM,57.2,24.8,29,30.22,10.0,WNW,9.2,19.6,N/A,,Clear,290,2012-10-10 18:15:00
1:35 PM,57.2,23.0,27,30.21,10.0,WNW,11.5,19.6,N/A,,Clear,300,2012-10-10 18:35:00
1:55 PM,60.8,21.2,22,30.20,10.0,WNW,12.7,23.0,N/A,,Clear,290,2012-10-10 18:55:00
2:15 PM,60.8,21.2,22,30.20,10.0,WNW,13.8,-,N/A,,Clear,290,2012-10-10 19:15:00
2:35 PM,60.8,21.2,22,30.19,10.0,West,13.8,18.4,N/A,,Clear,270,2012-10-10 19:35:00
2:55 PM,60.8,17.6,19,30.18,10.0,West,12.7,19.6,N/A,,Clear,260,2012-10-10 19:55:00
3:15 PM,62.6,15.8,16,30.18,10.0,West,10.4,23.0,N/A,,Clear,270,2012-10-10 20:15:00
3:35 PM,60.8,14.0,16,30.18,10.0,West,4.6,9.2,N/A,,Clear,280,2012-10-10 20:35:00
3:55 PM,62.6,15.8,16,30.17,10.0,WNW,10.4,-,N/A,,Clear,290,2012-10-10 20:55:00
4:15 PM,62.6,12.2,14,30.17,10.0,West,10.4,16.1,N/A,,Clear,260,2012-10-10 21:15:00
4:35 PM,62.6,12.2,14,30.16,10.0,West,9.2,-,N/A,,Clear,260,2012-10-10 21:35:00
4:55 PM,62.6,14.0,15,30.16,10.0,West,9.2,-,N/A,,Clear,280,2012-10-10 21:55:00
5:15 PM,60.8,15.8,17,30.16,10.0,West,6.9,-,N/A,,Clear,260,2012-10-10 22:15:00
5:35 PM,60.8,12.2,15,30.16,10.0,West,6.9,-,N/A,,Clear,280,2012-10-10 22:35:00
5:55 PM,59.0,19.4,22,30.16,10.0,West,4.6,-,N/A,,Clear,260,2012-10-10 22:55:00
6:15 PM,59.0,14.0,17,30.16,10.0,Calm,Calm,-,N/A,,Clear,0,2012-10-10 23:15:00
6:35 PM,55.4,21.2,26,30.16,10.0,Calm,Calm,-,N/A,,Clear,0,2012-10-10 23:35:00
6:55 PM,55.4,21.2,26,30.16,10.0,Calm,Calm,-,N/A,,Clear,0,2012-10-10 23:55:00
7:15 PM,50.0,26.6,40,30.16,10.0,Calm,Calm,-,N/A,,Clear,0,2012-10-11 00:15:00
7:35 PM,48.2,30.2,50,30.16,10.0,South,4.6,-,N/A,,Clear,180,2012-10-11 00:35:00
7:55 PM,51.8,26.6,38,30.16,10.0,South,4.6,-,N/A,,Clear,190,2012-10-11 00:55:00
8:15 PM,51.8,26.6,38,30.16,10.0,South,3.5,-,N/A,,Clear,190,2012-10-11 01:15:00
8:35 PM,50.0,26.6,40,30.16,10.0,Calm,Calm,-,N/A,,Clear,0,2012-10-11 01:35:00
8:55 PM,48.2,28.4,46,30.17,10.0,Calm,Calm,-,N/A,,Clear,0,2012-10-11 01:55:00
9:15 PM,48.2,30.2,50,30.17,10.0,South,3.5,-,N/A,,Clear,190,2012-10-11 02:15:00
9:35 PM,50.0,30.2,47,30.17,10.0,South,3.5,-,N/A,,Clear,180,2012-10-11 02:35:00
9:55 PM,48.2,30.2,50,30.17,10.0,South,3.5,-,N/A,,Clear,180,2012-10-11 02:55:00
10:15 PM,48.2,30.2,50,30.16,10.0,South,3.5,-,N/A,,Clear,180,2012-10-11 03:15:00
10:35 PM,48.2,30.2,50,30.17,10.0,South,4.6,-,N/A,,Clear,190,2012-10-11 03:35:00
10:55 PM,48.2,30.2,50,30.17,10.0,South,4.6,-,N/A,,Clear,190,2012-10-11 03:55:00
11:15 PM,48.2,30.2,50,30.16,10.0,South,4.6,-,N/A,,Clear,190,2012-10-11 04:15:00
11:35 PM,46.4,32.0,57,30.16,10.0,SSW,4.6,-,N/A,,Clear,200,2012-10-11 04:35:00
11:55 PM,46.4,32.0,57,30.16,10.0,SSW,5.8,-,N/A,,Clear,200,2012-10-11 04:55:00